Location: Unspecified
(34.4950°S, 58.5160°W)
Time: 16:00:51
(UTC+00:00)

BlueWalker 3 - Visible Passes

Search period start: 14 February 2026 00:00
Search period end: 24 February 2026 00:00
Orbit: 451 x 461 km, 53.2° (Epoch: 13 February)

Date Brightness Start Highest point End Pass type
(mag) Time Alt. Az. Time Alt. Az. Time Alt. Az.
14 Feb 4.7 07:31:58 10° S 07:34:29 17° SSE 07:37:00 10° ESE visible
15 Feb 2.4 00:20:10 10° NNW 00:22:44 39° N 00:22:44 39° N visible
15 Feb 5.0 06:56:34 10° S 06:58:36 14° SSE 07:00:37 10° ESE visible
15 Feb 1.7 08:32:47 10° SW 08:36:28 79° NW 08:40:06 10° NE visible
15 Feb 2.3 23:44:37 10° NNW 23:47:57 36° NE 23:51:18 10° ESE visible
16 Feb 4.2 01:22:36 10° W 01:25:23 22° SW 01:25:23 22° SW visible
16 Feb 5.1 06:22:23 11° SSE 06:22:40 11° SSE 06:23:57 10° SE visible
16 Feb 1.9 07:57:01 10° SW 08:00:42 74° SE 08:04:20 10° NE visible
16 Feb 2.8 23:09:13 10° N 23:12:14 25° NE 23:15:17 10° ESE visible
17 Feb 3.8 00:46:28 10° W 00:49:37 28° SW 00:52:49 10° SSE visible
17 Feb 2.5 07:25:00 52° SE 07:25:00 52° SE 07:28:28 10° ENE visible
17 Feb 3.6 09:00:16 10° W 09:01:59 13° WNW 09:03:41 10° NNW visible
18 Feb 3.3 00:10:24 10° WNW 00:13:46 36° SW 00:17:11 10° SSE visible
18 Feb 3.8 08:28:02 13° NNW 08:28:02 13° NNW 08:28:49 10° N visible
18 Feb 2.7 23:34:26 10° WNW 23:37:56 50° SW 23:41:30 10° SE visible
20 Feb 5.0 00:39:06 10° SW 00:40:10 11° SSW 00:41:15 10° S visible
21 Feb 4.8 00:02:19 10° WSW 00:04:12 13° SSW 00:06:04 10° S visible
21 Feb 4.7 23:25:51 10° WSW 23:28:14 17° SSW 23:30:39 10° S visible
